ATLAS 5 CENTAUR DEB, 44688

Orbit data source: Space-Track

ATLAS 5 CENTAUR DEB, 44688 is space debris in HEO originally from a launch on Wed, 17 Oct 2018 UTC launched from the Air Force Eastern Test Range (AFETR). Debris objects in space refer to the collection of defunct objects orbiting the Earth. Examples of debris include non-operational satellites, rocket bodies, and fragments generated from explosions, collisions, or faulty payload assembly.

Loading next visibility...
Identifier
44688, 2018-079BA
Orbit
HEO
Country
Flag of USUS
Related business
Flag of USUnited Launch Alliance/Lockheed Martin (US)
Manufacturer
ULA Decatur
Mission
Spacecraft
Bus & Motor
Unknown
Mass
Unknown
Launch date (UTC)
2018-10-17 (8 years ago)
Launch vehicle
Unknown
Launch site
Air Force Eastern Test Range (AFETR)
Object type
Payload
Rocket body
Debris
Shape & HBR
Unknown shape, 1.1 m
Radar Cross Section
RCS unknown

Expand to show TLE details & history
Last TLE update: 1 year ago

TLE from 1 year ago
0 ATLAS 5 CENTAUR DEB
1 44688U 18079BA  25070.21419111 -.00000094  00000-0  00000-0 0  9993
2 44688  12.9946  78.7829 5025158 221.9804  86.1620  1.78716452 38720
Epoch: 2025-03-11T05:08Z
TLE epoch observation values (Epoch: 2025-03-11T05:08:26.111Z)
Latitude
-0.00003°
Longitude
-167.36177°
Altitude
27,831.282 km
Speed
3.067 km/s
True Right ascension
05h 15m 28s
True Declination
0° 00' 00"
Sunlit
Object was in daylight at epoch
Visualization orbit readout
Latitude
Unknown
Longitude
Unknown
Altitude
Unknown
Speed
Unknown
Apparent Right ascension
Unknown
Apparent Declination
Unknown
Sunlit
N/A
Visualization observer readout
Local Sidereal Time
13:54:51
Azimuth
Unknown
Elevation
Unknown
Doppler factor
Unknown
Orbital elements
Apogee altitude
36,721.94 km
Perigee altitude
7,892.333 km
Semi-major axis
28,685.274 km
Eccentricity
0.50252
Inclination
12.9946°
RAAN
78.7829°
Arg. of periapsis
221.9804°
True anomaly
138.09791°
Mean anomaly
86.162°
Eccentric anomaly
112.71989°
Mean motion
0.44674 °/min
Orbital period
805.84 mins
BSTAR
0
Loading maneuver chart data...
Computing Atmospheric mass density...

Documentation

Showing up to 5 results
|